CST,Max TemperatureF,Mean TemperatureF,Min TemperatureF,Max Dew PointF,MeanDew PointF,Min DewpointF,Max Humidity, Mean Humidity, Min Humidity, Max Sea Level PressureIn, Mean Sea Level PressureIn, Min Sea Level PressureIn, Max VisibilityMiles, Mean VisibilityMiles, Min VisibilityMiles, Max Wind SpeedMPH, Mean Wind SpeedMPH, Max Gust SpeedMPH,PrecipitationIn, CloudCover, Events, WindDirDegrees
2012-11-1,73,58,43,49,44,40,93,69,35,30.10,30.02,29.95,10,10,7,7,1,,0.00,0,,116
2012-11-2,84,65,48,57,52,45,96,71,33,30.00,29.95,29.91,10,10,5,9,1,,0.00,0,,172
2012-11-3,82,70,59,64,54,42,90,61,40,30.13,30.02,29.96,10,10,7,14,4,22,0.02,3,Rain-Thunderstorm,302
2012-11-4,66,56,46,52,45,40,94,70,45,30.22,30.14,30.10,10,10,7,13,5,17,0.13,3,Rain-Thunderstorm,97
2012-11-5,66,54,43,48,44,40,93,68,46,30.11,30.02,29.93,10,10,2,10,1,17,0.00,4,Thunderstorm,350
2012-11-6,64,53,42,43,40,37,93,66,38,30.13,30.06,30.00,10,10,8,8,2,,0.00,1,,277
2012-11-7,66,52,39,41,35,28,93,59,25,30.18,30.11,30.07,10,10,10,12,4,22,0.00,0,,328
2012-11-8,63,50,37,41,38,35,89,61,39,30.26,30.18,30.12,10,10,10,10,4,,0.00,0,,140
2012-11-9,75,62,50,56,47,41,74,60,46,30.17,30.10,30.02,10,10,10,10,5,18,0.00,2,,144
2012-11-10,73,65,57,57,54,47,89,73,53,30.17,30.07,29.99,10,10,10,15,6,21,0.00,4,,160
2012-11-11,66,57,48,63,56,44,94,86,73,30.18,29.98,29.87,10,7,2,18,9,30,1.19,8,Rain-Thunderstorm,200
2012-11-12,55,46,34,43,29,18,89,62,25,30.50,30.39,30.18,10,10,10,12,6,17,0.00,2,,326
2012-11-13,55,42,30,35,28,20,93,72,26,30.56,30.48,30.39,10,8,0,8,1,,0.00,1,Fog,82
2012-11-14,57,46,34,34,29,20,89,62,23,30.46,30.39,30.33,10,10,10,8,1,,0.00,0,,60
2012-11-15,60,45,30,34,29,26,93,72,27,30.39,30.35,30.29,10,10,9,8,1,,0.00,1,,80
2012-11-16,62,46,30,36,29,25,93,67,24,30.45,30.40,30.35,10,9,0,10,1,,0.00,1,Fog,61
2012-11-17,63,46,30,36,30,26,100,73,25,30.47,30.41,30.34,10,7,0,5,0,,0.00,1,Fog-Snow,115
2012-11-18,64,47,30,39,34,28,93,75,33,30.40,30.35,30.29,10,7,0,8,1,,0.00,1,Fog-Rain-Snow,136
2012-11-19,64,55,46,46,41,37,83,63,40,30.31,30.24,30.19,10,10,10,7,3,,0.00,5,Rain,95
2012-11-20,75,62,48,52,47,43,90,69,43,30.22,30.17,30.10,10,10,5,7,2,,0.00,2,,289
2012-11-21,71,55,39,48,41,34,93,74,27,30.30,30.24,30.19,10,7,0,6,1,,0.00,1,Fog-Rain,330
2012-11-22,64,52,39,54,46,37,93,75,50,30.20,30.15,30.08,10,8,4,7,1,,0.05,2,Rain,125
2012-11-23,63,52,39,56,37,21,94,56,25,30.39,30.29,30.15,10,8,2,14,4,21,0.08,4,Rain,334
2012-11-24,53,42,30,28,23,18,76,51,25,30.41,30.30,30.16,10,10,10,6,1,,0.00,0,,101
2012-11-25,63,48,32,36,32,26,82,55,34,30.14,30.04,29.95,10,10,10,8,2,,0.00,0,,162
2012-11-26,61,54,46,54,47,36,94,78,57,30.24,30.05,29.97,10,8,2,10,5,20,0.01,8,Rain,80
2012-11-27,55,45,34,37,30,28,85,61,37,30.41,30.35,30.26,10,10,10,13,6,24,0.00,1,,52
2012-11-28,57,42,28,36,30,26,96,77,39,30.51,30.41,30.34,10,8,0,6,1,,0.00,2,Fog,144
2012-11-29,62,46,30,35,32,28,89,59,28,30.35,30.27,30.20,10,10,10,8,2,,0.00,0,,142
2012-11-30,62,52,41,54,44,32,79,69,50,30.25,30.18,30.14,10,10,9,8,3,,0.11,7,,113